TimeCEST,TemperatureF,Dew PointF,Humidity,Sea Level PressureIn,VisibilityMPH,Wind Direction,Wind SpeedMPH,Gust SpeedMPH,PrecipitationIn,Events,Conditions,WindDirDegrees,DateUTC
12:55 AM,53.6,42.8,67,30.33,-9999.0,North,-9999.0,-,N/A,,Clear,0,2012-10-20 22:55:00
1:55 AM,53.6,44.6,72,30.33,-9999.0,North,-9999.0,-,N/A,,Clear,0,2012-10-20 23:55:00
2:00 AM,53,45,67,,12,WNW,6.9,,,,,300,2012-10-21 00:00:00
2:55 AM,53.6,46.4,77,30.33,-9999.0,North,-9999.0,-,N/A,,Clear,0,2012-10-21 00:55:00
3:55 AM,53.6,46.4,77,30.33,-9999.0,North,-9999.0,-,N/A,,Clear,0,2012-10-21 01:55:00
7:55 AM,53.6,46.4,77,30.30,-9999.0,North,-9999.0,-,N/A,,Clear,0,2012-10-21 05:55:00
8:00 AM,53,47,72,,12,WNW,5.8,,,,,290,2012-10-21 06:00:00
8:55 AM,53.6,44.6,72,30.30,-9999.0,North,-9999.0,-,N/A,,Clear,0,2012-10-21 06:55:00
9:55 AM,55.4,44.6,67,30.30,-9999.0,North,-9999.0,-,N/A,,Clear,0,2012-10-21 07:55:00
10:55 AM,57.2,41.0,55,30.30,-9999.0,North,-9999.0,-,N/A,,Clear,0,2012-10-21 08:55:00
11:55 AM,59.0,44.6,59,30.30,-9999.0,North,-9999.0,-,N/A,,Clear,0,2012-10-21 09:55:00
12:55 PM,59.0,46.4,63,30.30,-9999.0,North,-9999.0,-,N/A,,Clear,0,2012-10-21 10:55:00
1:55 PM,60.8,48.2,63,30.30,-9999.0,North,-9999.0,-,N/A,,Clear,0,2012-10-21 11:55:00
2:00 PM,61,49,54,,9,Calm,Calm,,,,,,2012-10-21 12:00:00
2:55 PM,62.6,50.0,63,30.30,-9999.0,North,-9999.0,-,N/A,,Clear,0,2012-10-21 12:55:00
3:55 PM,62.6,48.2,59,30.27,-9999.0,North,-9999.0,-,N/A,,Clear,0,2012-10-21 13:55:00
4:55 PM,62.6,51.8,68,30.30,-9999.0,North,-9999.0,-,N/A,,Clear,0,2012-10-21 14:55:00
6:55 PM,59.0,44.6,59,30.27,-9999.0,North,-9999.0,-,N/A,,Clear,0,2012-10-21 16:55:00
7:55 PM,59.0,48.2,67,30.27,-9999.0,WNW,9.2,-,N/A,,Unknown,290,2012-10-21 17:55:00
8:00 PM,59,49,60,,0,WNW,9.2,,,,,290,2012-10-21 18:00:00
8:55 PM,57.2,46.4,67,30.27,-9999.0,North,-9999.0,-,N/A,,Clear,0,2012-10-21 18:55:00
9:55 PM,55.4,44.6,67,30.27,-9999.0,North,-9999.0,-,N/A,,Clear,0,2012-10-21 19:55:00
10:55 PM,55.4,44.6,67,30.30,-9999.0,North,-9999.0,-,N/A,,Clear,0,2012-10-21 20:55:00
11:55 PM,55.4,42.8,63,30.30,-9999.0,North,-9999.0,-,N/A,,Clear,0,2012-10-21 21:55:00